Location: Unspecified
(0.0000°N, 0.0000°E)
Time: 16:31:07
(UTC+02:00)

Cosmos 1125 Rocket - Visible Passes

Search period start: 04 September 2015 00:00
Search period end: 14 September 2015 00:00
Orbit: 759 x 780 km, 74.0° (Epoch: 02 September)

Date Brightness Start Highest point End Pass type
(mag) Time Alt. Az. Time Alt. Az. Time Alt. Az.
04 Sep 6.5 06:55:30 10° SE 06:58:25 16° ESE 07:01:37 10° ENE visible
05 Sep 6.3 20:32:27 10° NW 20:36:26 21° WSW 20:40:14 10° SSW visible
06 Sep 4.1 07:22:04 10° S 07:27:17 65° ESE 07:32:30 10° NNE visible
07 Sep 5.4 06:46:06 10° SSE 06:50:42 31° ESE 06:55:22 10° NE visible
08 Sep 6.4 06:11:05 10° SE 06:14:01 16° ESE 06:17:16 10° ENE visible
09 Sep 3.5 07:14:14 10° SSW 07:19:27 61° WNW 07:24:37 10° N visible
10 Sep 3.9 06:37:40 10° S 06:42:54 66° ESE 06:48:06 10° NNE visible
11 Sep 5.2 06:01:41 10° SSE 06:06:18 32° ESE 06:10:58 10° NE visible
12 Sep 6.2 05:26:39 10° SE 05:29:37 16° ESE 05:32:53 10° ENE visible
12 Sep 4.3 07:07:03 10° SW 07:11:38 29° WNW 07:16:06 10° NNW visible
13 Sep 3.4 06:32:00 24° SSW 06:35:03 60° WNW 06:40:12 10° N visible
